AB1AU Weather Reports


time (UTC)temp
C
wind
direction
speed
KPH
gust
KPH
rain 1hr
cm
rain 24hr
cm
rain mn
cm
humidity
%
barometer
mb
20260504232000 16 252 0.0 0.0 0.00 0.05 0.05 52 1006.4
20260504231456 16 255 0.0 0.0 0.00 0.05 0.05 49 1006.3
20260504230952 16 255 0.0 0.0 0.00 0.05 0.05 49 1006.1
20260504230449 17 265 0.0 0.0 0.00 0.05 0.05 48 1006.2
20260504225948 17 262 0.0 0.0 0.00 0.05 0.05 46 1006.1
20260504225444 17 270 0.0 1.6 0.00 0.05 0.05 47 1006.3
20260504224942 17 268 0.0 0.0 0.00 0.05 0.05 46 1006.3
20260504224438 17 243 0.0 3.2 0.00 0.05 0.05 45 1006.1
20260504223936 17 276 1.6 3.2 0.00 0.05 0.05 45 1006.1
20260504223431 17 259 0.0 4.8 0.00 0.05 0.05 45 1006.2
20260504222927 18 248 0.0 1.6 0.00 0.05 0.05 46 1005.9
20260504222425 18 253 1.6 4.8 0.00 0.05 0.05 45 1006.1
20260504221923 17 243 0.0 4.8 0.00 0.05 0.05 46 1006.2
20260504221419 18 338 3.2 4.8 0.00 0.05 0.05 45 1006.1
20260504220916 17 268 0.0 1.6 0.00 0.05 0.05 47 1006.1
20260504220413 17 269 3.2 4.8 0.00 0.05 0.05 46 1006.0
20260504215910 18 231 0.0 6.4 0.00 0.05 0.05 46 1006.1
20260504215407 18 281 1.6 4.8 0.00 0.05 0.05 45 1006.1
20260504214903 18 283 0.0 1.6 0.00 0.05 0.05 47 1006.2
20260504214359 18 269 0.0 3.2 0.00 0.05 0.05 46 1006.2
20260504213856 18 247 0.0 0.0 0.00 0.05 0.05 47 1006.2
20260504213352 18 237 1.6 4.8 0.00 0.05 0.05 46 1006.2
20260504212850 17 294 1.6 4.8 0.00 0.05 0.05 48 1006.3
20260504212346 17 287 1.6 4.8 0.00 0.05 0.05 49 1006.5
20260504211844 17 250 0.0 1.6 0.00 0.05 0.05 49 1006.2
20260504211339 17 274 4.8 6.4 0.00 0.05 0.05 47 1006.2
20260504210837 18 205 1.6 9.7 0.00 0.05 0.05 47 1006.3
20260504210334 18 214 0.0 3.2 0.00 0.05 0.05 47 1006.3
20260504205831 18 229 4.8 12.9 0.00 0.05 0.05 47 1006.1
20260504205329 18 235 1.6 3.2 0.00 0.05 0.05 47 1006.1
20260504204827 18 268 0.0 3.2 0.00 0.05 0.05 48 1006.0
20260504204325 18 165 3.2 6.4 0.00 0.05 0.05 48 1005.8
20260504203824 17 277 0.0 3.2 0.00 0.05 0.05 49 1006.0
20260504203321 17 207 6.4 11.3 0.00 0.05 0.05 48 1006.1
20260504202816 17 231 0.0 6.4 0.00 0.05 0.05 50 1006.1
20260504202314 17 179 3.2 4.8 0.00 0.05 0.05 49 1005.9
20260504201810 17 217 4.8 12.9 0.00 0.05 0.05 50 1006.1
20260504201308 17 245 3.2 6.4 0.00 0.05 0.05 50 1006.1
20260504200805 17 235 1.6 9.7 0.00 0.05 0.05 50 1006.0
20260504200301 17 246 3.2 3.2 0.00 0.05 0.05 49 1005.9
20260504195757 16 333 1.6 4.8 0.00 0.05 0.05 52 1005.7
20260504195253 16 213 9.7 12.9 0.00 0.05 0.05 51 1005.7
20260504194750 16 173 4.8 6.4 0.00 0.05 0.05 52 1005.8
20260504194247 16 267 1.6 14.5 0.00 0.05 0.05 53 1006.0
20260504193743 16 292 1.6 4.8 0.00 0.05 0.05 55 1006.0
20260504193240 16 210 14.5 14.5 0.00 0.05 0.05 54 1006.2
20260504192739 16 280 6.4 11.3 0.00 0.05 0.05 54 1006.1
20260504192237 16 205 3.2 16.1 0.00 0.05 0.05 54 1006.2
20260504191735 16 249 0.0 0.0 0.00 0.05 0.05 54 1006.1
20260504191231 16 285 6.4 9.7 0.00 0.05 0.05 54 1006.1
20260504190727 16 296 0.0 4.8 0.00 0.05 0.05 59 1006.0
20260504190224 15 172 6.4 9.7 0.00 0.05 0.05 59 1006.4
20260504185720 15 215 9.7 12.9 0.00 0.05 0.05 60 1006.4
20260504185217 15 248 4.8 6.4 0.00 0.05 0.05 59 1006.3
20260504184713 15 165 1.6 9.7 0.00 0.05 0.05 63 1006.4
20260504184209 15 258 4.8 9.7 0.00 0.05 0.05 66 1006.5
20260504183705 15 261 3.2 9.7 0.00 0.05 0.05 66 1006.6
20260504183202 14 224 4.8 6.4 0.00 0.05 0.05 69 1006.7
20260504182700 13 267 0.0 3.2 0.00 0.05 0.05 70 1006.7
20260504182157 13 276 3.2 6.4 0.00 0.05 0.05 72 1006.7
20260504181655 13 200 1.6 4.8 0.00 0.05 0.05 73 1006.7
20260504181152 13 282 1.6 4.8 0.00 0.05 0.05 71 1006.6
20260504180651 12 307 1.6 4.8 0.00 0.05 0.05 71 1006.6
20260504180149 13 282 0.0 3.2 0.00 0.05 0.05 72 1006.7
20260504175646 13 282 1.6 3.2 0.00 0.05 0.05 74 1006.9
20260504175143 12 244 1.6 11.3 0.00 0.05 0.05 76 1006.8
20260504174641 12 273 1.6 3.2 0.00 0.05 0.05 79 1006.8
20260504174137 11 287 0.0 1.6 0.00 0.05 0.05 78 1006.8
20260504173635 11 282 0.0 0.0 0.00 0.05 0.05 78 1007.0
20260504173132 11 237 1.6 3.2 0.18 0.05 0.05 77 1006.9
20260504172628 11 253 0.0 0.0 0.18 0.05 0.05 77 1006.9
20260504172125 12 252 0.0 0.0 0.00 0.03 0.03 76 1007.0
20260504171621 12 225 0.0 1.6 0.00 0.03 0.03 76 1007.1
20260504171119 12 252 1.6 3.2 0.00 0.03 0.03 75 1007.0
20260504170615 12 269 0.0 4.8 0.00 0.03 0.03 74 1006.9
20260504170113 12 270 0.0 1.6 0.00 0.03 0.03 74 1006.9
20260504150958 12 225 6.4 11.3 0.00 0.00 0.00 53 1006.5
20260504150455 12 160 4.8 11.3 0.00 0.00 0.00 54 1006.6
20260504140921 11 172 4.8 6.4 0.00 0.00 0.00 50 1007.6
20260504140418 11 239 3.2 6.4 0.00 0.00 0.00 51 1007.8
20260504130343 10 171 3.2 9.7 0.00 0.00 0.00 50 1008.3
20260504120306 7 245 0.0 1.6 0.00 0.00 0.00 63 1008.7
20260504110230 3 262 0.0 0.0 0.00 0.00 0.00 82 1008.7
20260504100153 -1 269 0.0 0.0 0.00 0.00 0.00 91 1008.7
20260504090116 -1 282 0.0 0.0 0.00 0.00 0.00 90 1008.4
20260504081546 0 287 0.0 0.0 0.00 0.00 0.00 89 1008.3
20260504081042 0 265 0.0 0.0 0.00 0.00 0.00 88 1008.4
20260504080539 0 262 0.0 0.0 0.00 0.00 0.00 88 1008.3
20260504050352 1 284 0.0 0.0 0.00 0.00 0.00 78 1007.9
20260504045850 1 284 0.0 0.0 0.00 0.00 0.00 77 1007.9
20260504045350 1 283 0.0 0.0 0.00 0.00 0.00 76 1008.1
20260504044847 2 283 0.0 0.0 0.00 0.00 0.00 75 1008.0
20260504044344 2 283 0.0 0.0 0.00 0.00 0.00 75 1007.8
20260504043841 2 283 0.0 0.0 0.00 0.00 0.00 74 1007.8
20260504043338 2 284 0.0 0.0 0.00 0.00 0.00 74 1007.8
20260504042835 2 284 0.0 0.0 0.00 0.00 0.00 73 1008.0
20260504042332 3 284 0.0 0.0 0.00 0.00 0.00 72 1007.9
20260504041828 3 283 0.0 0.0 0.00 0.00 0.00 70 1007.8
20260504041324 3 283 0.0 0.0 0.00 0.00 0.00 69 1007.9
20260504040821 4 283 0.0 0.0 0.00 0.00 0.00 66 1007.9
20260504040318 4 284 0.0 0.0 0.00 0.00 0.00 64 1007.8
20260504035814 5 283 0.0 0.0 0.00 0.99 0.99 62 1007.9
20260504035312 5 287 0.0 0.0 0.00 0.99 0.99 62 1007.6
20260504034809 5 287 0.0 0.0 0.00 0.99 0.99 60 1007.6
20260504034306 5 287 0.0 0.0 0.00 0.99 0.99 60 1007.7
20260504033803 5 278 0.0 0.0 0.00 0.99 0.99 59 1007.6
20260504033301 5 262 0.0 0.0 0.00 0.99 0.99 58 1007.5
20260504032757 5 284 0.0 0.0 0.00 0.99 0.99 59 1007.5
20260504032254 5 287 0.0 0.0 0.00 0.99 0.99 58 1007.5
20260504031751 5 284 0.0 0.0 0.00 0.99 0.99 58 1007.5
20260504031249 5 262 0.0 1.6 0.00 0.99 0.99 57 1007.4
20260504030744 5 273 0.0 0.0 0.00 0.99 0.99 56 1007.4
20260504030242 5 264 0.0 1.6 0.00 0.99 0.99 55 1007.3
20260504025738 6 287 0.0 1.6 0.00 0.99 0.99 55 1007.2
20260504025235 6 271 0.0 1.6 0.00 0.99 0.99 56 1007.2
20260504024732 6 262 0.0 1.6 0.00 0.99 0.99 55 1007.2
20260504024229 6 267 0.0 1.6 0.00 0.99 0.99 56 1007.0
20260504023726 6 286 0.0 0.0 0.00 0.99 0.99 55 1007.2
20260504023221 6 272 0.0 1.6 0.00 0.99 0.99 55 1007.3
20260504022718 6 268 0.0 1.6 0.00 0.99 0.99 55 1007.3
20260504022214 6 249 0.0 0.0 0.00 0.99 0.99 54 1007.3
20260504021712 6 246 0.0 0.0 0.00 0.99 0.99 55 1007.2
20260504021209 6 262 0.0 0.0 0.00 0.99 0.99 54 1007.2
20260504020705 6 257 0.0 1.6 0.00 0.99 0.99 52 1007.2
20260504020201 7 269 0.0 0.0 0.00 0.99 0.99 51 1007.2
20260504015658 7 261 0.0 1.6 0.00 0.99 0.99 49 1007.2
20260504015154 7 223 0.0 3.2 0.00 0.99 0.99 49 1007.1
20260504014650 7 274 1.6 4.8 0.00 0.99 0.99 49 1007.1
20260504014148 7 257 0.0 4.8 0.00 0.99 0.99 49 1007.1
20260504013645 7 286 0.0 1.6 0.00 0.99 0.99 49 1007.1
20260504013142 7 267 1.6 1.6 0.00 0.99 0.99 47 1006.9
20260504012639 7 249 1.6 1.6 0.00 0.99 0.99 48 1006.8
20260504012137 7 260 1.6 6.4 0.00 0.99 0.99 47 1006.8
20260504011633 7 245 3.2 3.2 0.00 0.99 0.99 46 1006.9
20260504011130 7 270 3.2 6.4 0.00 0.99 0.99 46 1006.7
20260504010626 7 287 4.8 6.4 0.00 0.99 0.99 46 1006.6
20260504010122 8 299 3.2 4.8 0.00 0.99 0.99 45 1006.5
20260504005619 8 275 3.2 4.8 0.00 0.99 0.99 45 1006.6
20260504005116 8 278 3.2 9.7 0.00 0.99 0.99 45 1006.2
20260504004614 8 292 4.8 4.8 0.00 0.99 0.99 45 1006.3
20260504004111 8 283 3.2 4.8 0.00 0.99 0.99 44 1006.1
20260504003607 8 276 1.6 6.4 0.00 0.99 0.99 45 1006.2
20260504003104 8 300 4.8 6.4 0.00 0.99 0.99 44 1006.0
20260504002601 8 288 4.8 4.8 0.00 0.99 0.99 45 1006.1
20260504002058 8 278 1.6 4.8 0.00 0.99 0.99 45 1006.0
20260504001556 8 289 0.0 3.2 0.00 0.99 0.99 46 1005.8
20260504001051 8 277 4.8 6.4 0.00 0.99 0.99 44 1005.9
20260504000549 8 263 1.6 6.4 0.00 0.99 0.99 44 1005.8
20260504000046 8 276 3.2 6.4 0.00 0.99 0.99 44 1005.7
20260503235544 8 284 6.4 12.9 0.00 0.99 0.99 43 1005.7
20260503235041 8 284 0.0 6.4 0.00 0.99 0.99 42 1005.6
20260503234538 8 296 3.2 4.8 0.00 0.99 0.99 43 1005.4
20260503234037 9 318 1.6 6.4 0.00 0.99 0.99 42 1005.4
20260503233533 9 355 3.2 12.9 0.00 0.99 0.99 42 1005.4
20260503233029 9 301 6.4 9.7 0.00 0.99 0.99 42 1005.3
20260503232526 9 302 4.8 9.7 0.00 0.99 0.99 41 1005.1